Estación meteorológica de Mataró (Maresme, Maresme)

Consulta los datos en tiempo real de la estación meteorológica de Mataró





Hora UTC 14:40
Temperatura 29.7 ºC
Suelo 15 cm 36.6 ºC
Humedad 55.2 %
Presión 1019.9 hPa
Pluja 0.0 mm
Velocidad viento 7.7 km/h
Dirección viento SE
Radiación solar 513.9 W/m²

Webcam

Datos diarios 2026-09-06



Hora UTC (invierno +1h; verano +2h)
Temperatura (ºC) Humedad (%) Presión (hPa) Velocidad viento (km/h) Precipitación (mm) Radiación solar (W/m²)
Hora UTC Aire Suelo 15 cm Humedad Presión Vel. Dir. Vel. Max Dir. Intent. máx 5 min. Rad. Sol.
00:05 28.2 27.1 50.6 1019.9 15.0 NNW 15.0 NW 0.0 0.1
00:10 28.1 27.1 51.8 1019.9 14.9 NNW 21.5 NNW 0.0 0.1
00:15 28.1 27.1 54.7 1019.8 15.5 NNW 21.2 NNW 0.0 0.1
00:20 27.9 27.1 58.1 1019.8 16.1 NNW 21.5 NNW 0.0 0.1
00:25 27.8 27.0 60.4 1019.8 16.3 NNW 22.2 NNW 0.0 0.1
00:30 27.7 26.9 59.5 1019.8 18.5 NNW 23.3 NNW 0.0 0.1
00:35 27.7 26.8 57.6 1019.7 17.0 NNW 22.6 NW 0.0 0.1
00:40 27.6 26.8 56.8 1019.7 16.8 NNW 21.2 N 0.0 0.1
00:45 27.6 26.7 56.3 1019.6 15.0 NNW 22.2 NNW 0.0 0.1
00:50 27.5 26.7 55.0 1019.6 14.2 NNW 21.5 NW 0.0 0.1
00:55 27.5 26.6 54.5 1019.6 12.9 NW 20.8 N 0.0 0.1
01:00 27.5 26.6 54.5 1019.6 11.3 NW 17.6 NW 0.0 0.1
01:05 27.5 26.5 54.6 1019.6 10.9 NW 16.6 NNW 0.0 0.1
01:10 27.6 26.5 54.6 1019.6 11.1 NW 19.1 NW 0.0 0.1
01:15 27.6 26.5 54.5 1019.5 9.8 NW 15.5 NW 0.0 0.1
01:20 27.5 26.4 54.4 1019.5 8.6 NW 15.9 NW 0.0 0.1
01:25 27.4 26.3 54.4 1019.5 8.6 NW 15.9 WNW 0.0 0.1
01:30 27.4 26.2 53.6 1019.5 7.9 NW 13.8 NW 0.0 0.1
01:35 27.4 26.1 53.3 1019.4 6.9 WNW 13.1 NW 0.0 0.1
01:40 27.4 26.0 53.3 1019.3 5.7 WNW 11.6 W 0.0 0.1
01:45 27.4 25.9 52.9 1019.3 6.5 NW 11.6 WNW 0.0 0.1
01:50 27.4 25.8 51.8 1019.3 6.7 NW 14.5 WNW 0.0 0.1
01:55 27.4 25.8 51.0 1019.3 6.5 NW 11.3 NW 0.0 0.1
02:00 27.3 25.8 50.9 1019.3 6.1 NW 11.6 NW 0.0 0.1
02:05 27.3 25.8 50.4 1019.2 7.1 NW 12.7 WNW 0.0 0.1
02:10 27.4 25.8 49.4 1019.1 5.3 NW 10.6 NNW 0.0 0.1
02:15 27.3 25.7 49.4 1019.2 3.4 WNW 7.8 NW 0.0 0.1
02:20 27.2 25.6 49.1 1019.2 3.3 WNW 8.5 WSW 0.0 0.1
02:25 27.0 25.3 49.2 1019.2 1.6 NW 4.2 WNW 0.0 0.1
02:30 26.8 25.1 49.3 1019.2 3.7 NNW 9.9 NNW 0.0 0.1
02:35 26.7 25.0 48.5 1019.1 5.4 NNW 9.5 NW 0.0 0.1
02:40 26.6 25.0 47.6 1019.2 4.4 NNW 7.1 N 0.0 0.1
02:45 26.5 24.9 46.9 1019.2 1.3 NNW 3.5 NNW 0.0 0.1
02:50 26.2 24.4 46.7 1019.2 0.1 NNE 1.8 ENE 0.0 0.1
02:55 25.9 24.0 47.1 1019.2 2.2 NE 5.6 N 0.0 0.1
03:00 25.9 23.7 46.8 1019.2 0.2 NNW 2.1 W 0.0 0.1
03:05 25.8 23.4 47.1 1019.2 0.7 N 4.2 N 0.0 0.1
03:10 25.6 23.2 47.6 1019.3 3.2 NW 8.8 WNW 0.0 0.1
03:15 25.5 23.1 47.6 1019.3 4.0 NNW 7.8 NNW 0.0 0.1
03:20 25.7 23.2 46.8 1019.2 4.1 NW 7.1 NW 0.0 0.1
03:25 25.5 23.3 47.0 1019.1 4.2 NNE 6.4 NNE 0.0 0.1
03:30 25.2 23.2 47.3 1019.1 3.0 NNW 8.5 W 0.0 0.1
03:35 25.3 23.0 47.2 1019.1 2.7 WNW 4.6 W 0.0 0.1
03:40 25.2 22.8 47.3 1019.1 1.6 NE 4.2 NNW 0.0 0.1
03:45 25.1 22.7 47.0 1019.0 0.5 NNE 2.1 NE 0.0 0.1
03:50 25.3 22.5 46.5 1019.0 0.6 WSW 3.9 SW 0.0 0.1
03:55 25.2 22.4 46.8 1019.0 1.4 W 3.5 S 0.0 0.1
04:00 25.2 22.4 46.4 1019.0 2.5 N 6.4 N 0.0 0.1
04:05 25.5 22.6 45.7 1019.0 4.4 NNW 7.8 NNW 0.0 0.1
04:10 25.6 22.8 45.2 1018.9 1.5 NNW 4.2 NNW 0.0 0.1
04:15 25.4 22.9 45.9 1018.8 2.4 SE 5.6 ESE 0.0 0.1
04:20 25.4 22.8 46.8 1018.8 2.1 ESE 4.9 ESE 0.0 0.1
04:25 25.5 22.7 47.4 1018.9 5.9 ENE 9.5 ENE 0.0 0.1
04:30 26.0 22.9 46.8 1018.9 4.9 NNE 9.5 NE 0.0 0.1
04:35 25.5 23.2 48.0 1018.9 4.1 N 6.4 NNE 0.0 0.1
04:40 25.3 23.2 48.3 1018.9 1.6 N 4.6 NNW 0.0 0.1
04:45 25.0 23.0 48.8 1018.9 1.2 NW 2.8 NW 0.0 0.1
04:50 25.0 22.7 47.6 1018.9 0.4 NNW 2.8 NNW 0.0 0.1
04:55 25.0 22.4 47.2 1019.0 0.6 SE 2.8 SE 0.0 0.1
05:00 25.0 22.2 48.2 1019.0 0.5 SE 2.8 SE 0.0 0.2
05:05 24.9 21.9 50.4 1019.0 0.1 NW 1.8 NW 0.0 0.4
05:10 24.7 21.8 51.0 1019.1 3.3 NW 4.9 NNW 0.0 1.0
05:15 24.6 21.9 53.1 1019.1 6.5 NW 10.9 NW 0.0 2.5
05:20 24.6 22.2 51.9 1019.2 8.8 NNW 12.0 NW 0.0 4.5
05:25 24.6 22.5 50.1 1019.2 8.3 NW 10.9 NNW 0.0 7.4
05:30 24.8 22.8 48.6 1019.1 4.0 NNW 6.4 N 0.0 11.5
05:35 24.9 23.0 47.7 1019.2 2.1 E 3.9 E 0.0 16.7
05:40 24.8 23.0 47.3 1019.3 3.8 E 7.4 ENE 0.0 22.5
05:45 25.1 23.0 45.7 1019.4 4.6 ENE 8.5 ENE 0.0 28.7
05:50 25.6 23.5 48.0 1019.4 5.3 NE 7.4 NE 0.0 35.1
05:55 25.8 24.1 49.2 1019.4 3.5 NE 5.3 NE 0.0 41.3
06:00 25.8 24.6 49.3 1019.5 3.8 NNE 4.9 NNE 0.0 49.0
06:05 26.2 25.1 48.0 1019.6 3.0 NE 5.3 NE 0.0 73.5
06:10 26.3 25.6 45.9 1019.7 3.5 NNW 5.3 NW 0.0 87.2
06:15 26.2 26.3 44.9 1019.7 2.9 NW 5.3 NW 0.0 100.1
06:20 26.3 27.0 44.6 1019.8 1.6 NNW 3.2 NW 0.0 112.7
06:25 26.4 27.7 44.7 1019.8 0.1 SSW 1.4 S 0.0 125.1
06:30 26.7 28.6 48.3 1019.9 0.7 ESE 4.6 E 0.0 138.0
06:35 27.0 29.5 52.5 1019.9 1.8 E 6.0 NE 0.0 151.7
06:40 27.2 30.2 53.1 1019.9 0.8 N 2.8 NE 0.0 165.5
06:45 27.2 30.9 53.6 1019.9 0.4 WSW 2.1 W 0.0 178.1
06:50 27.5 31.5 54.8 1020.0 1.1 S 2.8 S 0.0 191.4
06:55 27.9 32.2 53.7 1020.0 0.0 SSW 1.1 SSW 0.0 205.4
07:00 28.3 32.8 52.4 1020.0 1.6 SSW 3.9 S 0.0 219.0
07:05 28.5 33.3 52.8 1020.0 2.2 S 4.2 S 0.0 232.8
07:10 28.7 33.9 50.2 1020.1 0.4 SSE 2.1 S 0.0 247.0
07:15 29.0 34.4 50.5 1020.2 2.9 SSE 6.7 SE 0.0 261.0
07:20 29.3 34.8 48.1 1020.2 4.8 SE 7.8 SSE 0.0 273.9
07:25 29.3 34.9 46.9 1020.2 6.5 ESE 10.2 ESE 0.0 287.8
07:30 29.3 34.9 46.3 1020.2 6.9 SE 12.0 SE 0.0 300.9
07:35 29.3 35.0 46.8 1020.2 6.3 SE 10.2 SE 0.0 314.4
07:40 29.5 35.1 45.8 1020.2 7.9 SE 12.0 SE 0.0 327.5
07:45 29.6 35.2 45.8 1020.3 7.8 SE 13.1 SE 0.0 339.9
07:50 29.7 35.4 44.9 1020.3 7.3 SE 12.0 ESE 0.0 353.8
07:55 29.7 35.7 44.2 1020.3 7.8 SE 12.7 SSE 0.0 366.5
08:00 29.8 35.9 43.2 1020.3 9.1 SE 13.4 SE 0.0 378.9
08:05 29.8 36.1 43.0 1020.4 8.0 SE 13.4 SE 0.0 391.2
08:10 29.9 36.2 43.1 1020.5 9.8 SE 15.2 SSE 0.0 403.2
08:15 29.9 36.3 43.1 1020.5 9.5 SE 14.1 SE 0.0 415.0
08:20 29.9 36.5 42.8 1020.5 9.4 SE 16.9 SE 0.0 427.2
08:25 29.9 36.7 43.3 1020.5 9.6 SE 14.8 ESE 0.0 439.0
08:30 29.9 36.9 42.8 1020.6 9.2 SE 14.8 SE 0.0 451.0
08:35 29.9 37.1 42.1 1020.7 10.6 SE 14.8 SSE 0.0 438.5
08:40 30.0 37.2 42.2 1020.7 10.2 SE 16.9 ESE 0.0 473.9
08:45 30.1 37.5 42.1 1020.7 8.3 ESE 16.6 SE 0.0 485.5
08:50 30.4 37.7 42.0 1020.7 9.1 SE 14.8 SSE 0.0 496.9
08:55 30.3 37.9 41.5 1020.8 11.3 SE 17.6 ESE 0.0 507.8
09:00 30.3 38.0 42.3 1020.9 10.9 SE 14.8 SE 0.0 517.6
09:05 30.3 38.1 43.3 1020.8 11.7 SE 16.2 SE 0.0 528.0
09:10 30.3 38.0 43.2 1020.8 11.2 SE 15.9 SE 0.0 538.4
09:15 30.4 38.1 42.2 1020.9 10.2 SE 15.2 SE 0.0 549.4
09:20 30.5 38.3 41.1 1021.0 12.3 SE 18.0 SE 0.0 559.1
09:25 30.5 38.4 40.9 1021.0 11.2 SE 19.4 SE 0.0 569.1
09:30 30.6 38.5 39.9 1020.9 12.6 SE 19.1 SSE 0.0 578.6
09:35 30.6 38.6 41.5 1021.0 14.4 SE 21.9 SE 0.0 586.3
09:40 30.5 38.6 42.1 1021.0 13.5 SE 19.8 ESE 0.0 593.7
09:45 30.4 38.6 41.7 1021.0 11.2 SE 20.1 SE 0.0 601.1
09:50 30.4 38.8 41.2 1021.0 13.4 SE 19.4 ESE 0.0 609.7
09:55 30.4 38.8 42.5 1021.0 11.9 SE 18.7 SE 0.0 617.6
10:00 30.5 39.0 42.3 1021.0 10.4 SE 15.9 ESE 0.0 625.5
10:05 30.7 39.4 40.6 1021.0 12.0 SE 16.2 SE 0.0 632.8
10:10 30.6 39.5 41.4 1020.9 12.3 SE 17.6 ESE 0.0 639.8
10:15 30.6 39.6 42.0 1020.9 11.3 SE 16.2 SE 0.0 646.6
10:20 30.7 39.9 40.6 1020.9 11.1 SE 16.9 SE 0.0 653.2
10:25 30.8 40.3 41.0 1020.9 11.0 SE 17.3 SE 0.0 658.5
10:30 30.8 40.4 40.2 1020.8 13.7 SE 20.5 SSE 0.0 664.2
10:35 30.7 40.2 39.5 1020.8 12.1 SE 16.9 SSE 0.0 669.2
10:40 30.7 40.2 38.3 1020.8 12.0 SE 19.4 ESE 0.0 674.2
10:45 30.8 40.2 36.5 1020.9 12.0 SE 17.6 SE 0.0 678.8
10:50 30.7 40.3 39.3 1020.9 11.1 SE 18.4 SE 0.0 682.3
10:55 30.8 40.4 38.1 1020.8 11.7 ESE 17.6 SE 0.0 685.6
11:00 30.8 40.6 39.5 1020.9 9.8 SE 18.4 SE 0.0 682.1
11:05 30.7 40.9 40.0 1020.9 12.8 SE 18.0 SE 0.0 693.4
11:10 30.4 40.9 40.6 1020.8 11.4 SE 16.2 SE 0.0 696.0
11:15 30.5 40.9 40.9 1020.8 11.4 SE 18.0 ESE 0.0 699.5
11:20 30.7 41.1 40.8 1020.8 11.2 SE 19.1 SSE 0.0 699.6
11:25 30.7 41.2 40.8 1020.8 11.3 SE 21.2 SE 0.0 702.5
11:30 30.5 41.2 41.8 1020.7 11.5 SSE 19.1 SSE 0.0 705.6
11:35 30.5 41.0 41.7 1020.7 11.7 SE 15.9 SE 0.0 707.3
11:40 30.6 41.1 44.2 1020.7 10.5 SSE 16.2 S 0.0 707.5
11:45 30.6 41.4 43.0 1020.7 12.1 SE 20.1 SE 0.0 704.4
11:50 30.6 41.4 43.1 1020.7 10.4 SE 21.9 SSE 0.0 707.9
11:55 30.5 41.4 42.9 1020.7 11.4 SE 18.7 SE 0.0 708.9
12:00 30.5 41.4 43.1 1020.8 10.0 SSE 18.4 S 0.0 705.7
12:05 30.8 41.5 43.7 1020.8 9.9 SSE 19.1 SSE 0.0 699.8
12:10 30.5 41.4 43.0 1020.7 11.6 SE 19.8 SSE 0.0 705.4
12:15 30.4 41.4 42.9 1020.6 11.1 SE 20.8 SSE 0.0 705.2
12:20 30.4 41.6 44.8 1020.7 9.7 SE 17.3 SE 0.0 703.9
12:25 30.2 41.6 41.5 1020.7 10.7 ESE 15.9 SE 0.0 701.5
12:30 30.3 41.5 44.5 1020.6 10.9 ESE 16.9 ESE 0.0 698.9
12:35 30.4 41.4 43.2 1020.5 10.3 SSE 17.6 SSE 0.0 696.6
12:40 30.6 41.5 44.6 1020.5 10.0 SSE 18.0 SSE 0.0 694.9
12:45 30.5 41.6 45.6 1020.5 11.9 SE 20.8 SSE 0.0 678.6
12:50 30.3 41.3 45.5 1020.4 10.8 SE 19.1 SE 0.0 680.8
12:55 30.2 41.0 45.8 1020.4 10.0 SSE 16.9 SSE 0.0 683.3
13:00 30.4 41.2 45.4 1020.5 8.7 SSE 14.8 SSW 0.0 677.6
13:05 30.4 41.4 48.2 1020.4 9.8 SE 17.3 SE 0.0 671.6
13:10 30.2 41.4 48.3 1020.3 9.4 SE 16.6 S 0.0 667.6
13:15 30.2 41.1 46.8 1020.3 10.3 SSE 17.6 SSE 0.0 654.5
13:20 30.2 41.0 49.3 1020.3 8.6 SSE 14.1 SSE 0.0 649.0
13:25 30.2 40.9 50.1 1020.3 10.5 SE 15.9 SSE 0.0 640.1
13:30 30.2 40.8 48.4 1020.2 6.8 SE 13.8 SE 0.0 643.6
13:35 30.3 41.2 50.1 1020.2 7.9 SSE 14.8 SSE 0.0 634.0
13:40 30.2 41.4 50.4 1020.3 9.5 SSE 17.6 SSE 0.0 626.7
13:45 30.2 41.2 51.5 1020.2 9.2 SE 13.4 ESE 0.0 612.1
13:50 29.8 41.0 52.8 1020.1 7.4 ESE 13.8 SSE 0.0 603.8
13:55 29.7 40.7 54.4 1020.1 9.8 SSE 13.8 SE 0.0 597.9
14:00 29.6 40.5 54.0 1020.1 8.1 S 12.7 SSE 0.0 592.4
14:05 29.9 40.3 53.7 1020.0 7.0 SSE 12.7 SSE 0.0 583.5
14:10 29.9 40.1 54.3 1019.9 7.4 S 13.8 SSE 0.0 562.7
14:15 30.1 39.6 53.9 1020.0 7.4 SE 12.4 SE 0.0 546.8
14:20 30.1 39.0 54.1 1020.0 7.0 SE 11.6 ESE 0.0 554.1
14:25 30.1 38.1 53.7 1019.9 7.8 SE 12.4 ESE 0.0 543.3
14:30 30.0 37.3 54.5 1019.9 8.4 SSE 14.1 ESE 0.0 532.7
14:35 30.0 36.7 54.8 1019.9 8.7 SSE 13.8 SE 0.0 524.5
14:40 29.7 36.6 55.2 1019.9 7.7 SE 13.1 SSE 0.0 513.9
Máxima 30.8 41.6 60.4 1021.0 18.5 NNW 23.3 NNW 0.0 708.9
Mínima 20 20 36.5 1018.8
Total 0.0